• In Belarus
  • List of Countries
  • For 7 days
  • Water Temperature
  • Satellite Maps
  • Weather Map
  • Weather Widgets
  • user-avatar
    Login

    Hourly Weather Serteya

    Today, 20 February, Wednesday

    Time Temperature Precipitation Wind Pressure Humidity
    00:00 0°C° 0 mm 5 mps 738 mmHg 92%
    01:00 0°C° 0 mm 4 mps 738 mmHg 92%
    02:00 0°C° 0 mm 5 mps 737 mmHg 93%
    03:00 0°C° 0.1 mm 5 mps 737 mmHg 93%
    04:00 0°C° 0.1 mm 4 mps 737 mmHg 93%
    05:00 0°C° 0.1 mm 4 mps 737 mmHg 93%
    06:00 0°C° 0 mm 4 mps 737 mmHg 92%
    07:00 0°C° 0 mm 4 mps 737 mmHg 92%
    08:00 0°C° 0 mm 4 mps 736 mmHg 92%
    09:00 0°C° 0.1 mm 4 mps 736 mmHg 91%
    10:00 0°C° 0.1 mm 4 mps 736 mmHg 90%
    11:00 0°C° 0.1 mm 5 mps 736 mmHg 90%
    12:00 +1°C° 0.1 mm 5 mps 736 mmHg 89%
    13:00 +1°C° 0.1 mm 5 mps 735 mmHg 89%
    14:00 +1°C° 0 mm 4 mps 735 mmHg 88%
    15:00 +1°C° 0.2 mm 5 mps 735 mmHg 88%
    16:00 +1°C° 0.2 mm 5 mps 735 mmHg 87%
    17:00 +1°C° 0.2 mm 5 mps 734 mmHg 87%
    18:00 0°C° 0.3 mm 5 mps 734 mmHg 84%
    19:00 -1°C° 0.3 mm 5 mps 734 mmHg 81%
    20:00 -2°C° 0.3 mm 6 mps 735 mmHg 78%
    21:00 -2°C° 0.1 mm 5 mps 735 mmHg 78%
    22:00 -4°C° 0.1 mm 5 mps 736 mmHg 77%
    23:00 -5°C° 0.1 mm 5 mps 736 mmHg 77%

    Tomorrow, 21 February, Thursday

    Time Temperature Precipitation Wind Pressure Humidity
    00:00 -6°C° 0.1 mm 5 mps 737 mmHg 78%
    01:00 -6°C° 0.1 mm 5 mps 737 mmHg 79%
    02:00 -6°C° 0.1 mm 6 mps 738 mmHg 79%
    03:00 -6°C° 0.1 mm 6 mps 738 mmHg 77%
    04:00 -6°C° 0.1 mm 6 mps 738 mmHg 74%
    05:00 -7°C° 0.1 mm 7 mps 738 mmHg 71%
    06:00 -8°C° 0.1 mm 7 mps 739 mmHg 71%
    07:00 -8°C° 0.1 mm 7 mps 740 mmHg 70%
    08:00 -8°C° 0.1 mm 7 mps 740 mmHg 70%
    09:00 -8°C° 0.1 mm 7 mps 741 mmHg 69%
    10:00 -8°C° 0.1 mm 7 mps 742 mmHg 67%
    11:00 -9°C° 0.1 mm 7 mps 742 mmHg 65%
    12:00 -9°C° 0.1 mm 7 mps 743 mmHg 65%
    13:00 -9°C° 0.1 mm 7 mps 744 mmHg 64%
    14:00 -9°C° 0.1 mm 7 mps 744 mmHg 64%
    15:00 -9°C° 0.1 mm 6 mps 745 mmHg 65%
    16:00 -9°C° 0.1 mm 6 mps 746 mmHg 66%
    17:00 -10°C° 0.1 mm 6 mps 746 mmHg 67%
    18:00 -10°C° 0 mm 6 mps 747 mmHg 67%
    19:00 -11°C° 0 mm 5 mps 747 mmHg 68%
    20:00 -11°C° 0 mm 5 mps 748 mmHg 68%
    21:00 -11°C° 0 mm 5 mps 748 mmHg 68%
    22:00 -12°C° 0 mm 5 mps 749 mmHg 68%
    23:00 -12°C° 0 mm 5 mps 749 mmHg 69%

    Day after tomorrow, 22 February, Friday

    Time Temperature Precipitation Wind Pressure Humidity
    00:00 -12°C° 0 mm 5 mps 750 mmHg 69%
    01:00 -13°C° 0 mm 5 mps 750 mmHg 69%
    02:00 -13°C° 0 mm 5 mps 751 mmHg 70%
    03:00 -13°C° 0 mm 5 mps 751 mmHg 70%
    04:00 -13°C° 0 mm 5 mps 751 mmHg 70%
    05:00 -13°C° 0 mm 5 mps 752 mmHg 70%
    06:00 -14°C° 0 mm 6 mps 752 mmHg 69%
    07:00 -14°C° 0 mm 6 mps 752 mmHg 69%
    08:00 -14°C° 0 mm 6 mps 753 mmHg 68%
    09:00 -14°C° 0 mm 6 mps 753 mmHg 65%
    10:00 -12°C° 0 mm 6 mps 754 mmHg 62%
    11:00 -12°C° 0 mm 6 mps 754 mmHg 59%
    12:00 -11°C° 0 mm 6 mps 754 mmHg 58%
    13:00 -11°C° 0 mm 6 mps 755 mmHg 56%
    14:00 -10°C° 0 mm 6 mps 755 mmHg 55%
    15:00 -11°C° 0 mm 6 mps 755 mmHg 58%
    16:00 -11°C° 0 mm 6 mps 756 mmHg 61%
    17:00 -11°C° 0 mm 5 mps 757 mmHg 64%
    18:00 -12°C° 0 mm 5 mps 757 mmHg 66%
    19:00 -12°C° 0 mm 5 mps 758 mmHg 68%
    20:00 -13°C° 0 mm 5 mps 758 mmHg 70%
    21:00 -12°C° 0 mm 4 mps 759 mmHg 72%
    22:00 -12°C° 0 mm 4 mps 759 mmHg 74%
    23:00 -14°C° 0 mm 4 mps 760 mmHg 76%

    23 February, Saturday

    Time Temperature Precipitation Wind Pressure Humidity
    00:00 -14°C° 0 mm 4 mps 760 mmHg 77%
    01:00 -14°C° 0 mm 4 mps 760 mmHg 79%
    02:00 -13°C° 0 mm 3 mps 761 mmHg 81%
    03:00 -13°C° 0 mm 3 mps 761 mmHg 82%
    04:00 -13°C° 0 mm 3 mps 761 mmHg 83%
    05:00 -14°C° 0 mm 3 mps 761 mmHg 84%
    06:00 -14°C° 0 mm 3 mps 762 mmHg 85%
    07:00 -13°C° 0 mm 3 mps 762 mmHg 85%
    08:00 -13°C° 0 mm 3 mps 762 mmHg 85%
    09:00 -12°C° 0 mm 3 mps 762 mmHg 80%
    10:00 -10°C° 0 mm 3 mps 762 mmHg 74%
    11:00 -9°C° 0 mm 3 mps 762 mmHg 69%
    12:00 -9°C° 0 mm 3 mps 762 mmHg 68%
    13:00 -8°C° 0 mm 3 mps 762 mmHg 67%
    14:00 -7°C° 0 mm 2 mps 762 mmHg 66%
    15:00 -7°C° 0 mm 2 mps 761 mmHg 68%
    16:00 -7°C° 0 mm 2 mps 761 mmHg 70%
    17:00 -7°C° 0 mm 2 mps 761 mmHg 72%
    18:00 -7°C° 0 mm 2 mps 760 mmHg 72%
    19:00 -7°C° 0 mm 2 mps 760 mmHg 71%
    20:00 -7°C° 0 mm 2 mps 760 mmHg 71%
    21:00 -7°C° 0.1 mm 2 mps 759 mmHg 73%
    22:00 -8°C° 0.1 mm 3 mps 759 mmHg 75%
    23:00 -8°C° 0.1 mm 3 mps 759 mmHg 77%

    24 February, Sunday

    Time Temperature Precipitation Wind Pressure Humidity
    00:00 -7°C° 0.3 mm 3 mps 758 mmHg 82%
    01:00 -7°C° 0.3 mm 3 mps 758 mmHg 86%
    02:00 -7°C° 0.3 mm 3 mps 757 mmHg 90%
    03:00 -7°C° 0.1 mm 3 mps 756 mmHg 90%
    04:00 -6°C° 0.1 mm 3 mps 756 mmHg 91%
    05:00 -6°C° 0.1 mm 3 mps 755 mmHg 91%
    06:00 -5°C° 0.1 mm 3 mps 755 mmHg 91%
    07:00 -5°C° 0.1 mm 3 mps 755 mmHg 92%
    08:00 -4°C° 0.1 mm 3 mps 754 mmHg 93%
    09:00 -2°C° 0.1 mm 3 mps 754 mmHg 92%
    10:00 -2°C° 0.1 mm 3 mps 754 mmHg 92%
    11:00 -1°C° 0.1 mm 3 mps 754 mmHg 91%
    12:00 0°C° 0 mm 3 mps 754 mmHg 89%
    13:00 0°C° 0 mm 3 mps 754 mmHg 88%
    14:00 +2°C° 0 mm 2 mps 754 mmHg 86%
    15:00 +1°C° 0 mm 2 mps 753 mmHg 87%
    16:00 +2°C° 0 mm 1 mps 753 mmHg 89%
    17:00 +1°C° 0 mm 1 mps 753 mmHg 91%
    18:00 +1°C° 0 mm 1 mps 753 mmHg 92%
    19:00 0°C° 0 mm 1 mps 752 mmHg 92%
    20:00 0°C° 0 mm 1 mps 752 mmHg 93%
    21:00 0°C° 0 mm 1 mps 751 mmHg 94%
    22:00 0°C° 0 mm 1 mps 751 mmHg 95%
    23:00 -1°C° 0 mm 1 mps 750 mmHg 96%

    25 February, Monday

    Time Temperature Precipitation Wind Pressure Humidity
    00:00 -2°C° 0 mm 2 mps 749 mmHg 96%
    01:00 -2°C° 0 mm 2 mps 748 mmHg 96%
    02:00 -2°C° 0 mm 2 mps 747 mmHg 97%
    03:00 -2°C° 0.2 mm 2 mps 747 mmHg 97%
    04:00 -2°C° 0.2 mm 2 mps 746 mmHg 97%
    05:00 -2°C° 0.2 mm 2 mps 745 mmHg 97%
    06:00 -2°C° 0.4 mm 2 mps 745 mmHg 97%
    07:00 -1°C° 0.4 mm 2 mps 745 mmHg 97%
    08:00 +1°C° 0.4 mm 1 mps 745 mmHg 97%
    09:00 -1°C° 0.7 mm 3 mps 746 mmHg 94%
    10:00 -1°C° 0.7 mm 4 mps 746 mmHg 90%
    11:00 -1°C° 0.7 mm 5 mps 746 mmHg 87%
    12:00 -1°C° 0.2 mm 5 mps 747 mmHg 84%
    13:00 -1°C° 0.2 mm 5 mps 747 mmHg 81%
    14:00 -1°C° 0.2 mm 5 mps 747 mmHg 77%
    15:00 -1°C° 0 mm 5 mps 748 mmHg 79%
    16:00 -2°C° 0 mm 5 mps 748 mmHg 81%
    17:00 -2°C° 0 mm 4 mps 749 mmHg 82%
    18:00 -2°C° 0 mm 4 mps 749 mmHg 83%
    19:00 -2°C° 0 mm 4 mps 749 mmHg 84%
    20:00 -2°C° 0 mm 4 mps 749 mmHg 84%
    21:00 -2°C° 0 mm 3 mps 749 mmHg 86%
    22:00 -2°C° 0 mm 3 mps 749 mmHg 87%
    23:00 -2°C° 0 mm 3 mps 749 mmHg 88%
    Show more